Home > Weather > Ontario > Past weeks

Flag for USA Weather for the Past 2 Weeks in Ontario, Oregon, USA

Now
61 °F

Clear.


Feels Like: 61 °F
Forecast: 57 / 82 °F
Wind: 15 mph from Northwest

Location: Ontario Municipal Airport

Current Time: May 6, 2016 at 7:19:54 AM

Latest Report: May 6, 2016 at 6:53 AM


Visibility: 10 mi

Pressure: 29.79 "Hg (27.57 "Hg at 656m altitude)

Humidity: 65%

Dew Point: 49 °F

Location of OntarioLocation

Historic Weather in Ontario — Graph

°F

Ontario Temperature Yesterday

Maximum temperature yesterday: 80 °F (at 3:53 PM)
Minimum temperature yesterday: 56 °F (at 6:53 AM)
Average temperature yesterday: 69 °F

High & Low Weather Summary for the Past Weeks

 TemperatureHumidityPressure
High83 °F (Apr 21, 4:53 PM)93% (Apr 24, 12:53 AM)30.19 "Hg (Apr 24, 12:53 AM)
Low41 °F (Apr 24, 4:53 AM)16% (May 2, 4:53 PM)29.58 "Hg (Apr 22, 1:53 AM)
Average59 °F50%29.90 "Hg
* Reported Apr 21 5:53 AM — May 6 5:53 AM, Ontario, Weather by CustomWeather, © 2016

Note: Actual official high and low records may vary slightly from our data, if they occured in-between our weather recording intervals... More about our weather records

Advertising

Ontario Weather History for the Previous 24 Hours

Scroll right to see more
 ConditionsComfort  
Time TempWeatherWind HumidityBarometerVisibility
5:53 AM
Fri, May 6
61 °FClear.10 mph65%29.80 "Hg10 mi
4:53 AM61 °FClear.15 mph65%29.79 "Hg10 mi
3:53 AM61 °FClear.20 mph67%29.78 "Hg10 mi
2:53 AM61 °FClear.23 mph67%29.79 "Hg10 mi
1:53 AM61 °FClear.12 mph65%29.79 "Hg10 mi
12:53 AM63 °FClear.20 mph58%29.78 "Hg10 mi
11:53 PM
Thu, May 5
64 °FClear.14 mph56%29.77 "Hg10 mi
10:53 PM66 °FSunny.22 mph52%29.78 "Hg10 mi
9:53 PM66 °FSunny.15 mph54%29.77 "Hg10 mi
8:53 PM69 °FSunny.16 mph42%29.75 "Hg10 mi
7:53 PM74 °FOvercast.13 mph37%29.70 "Hg10 mi
6:53 PM75 °FPartly sunny.7 mph34%29.69 "Hg10 mi
5:53 PM78 °FSunny.7 mph31%29.68 "Hg10 mi
4:53 PM80 °FSunny.3 mph28%29.68 "Hg10 mi
3:53 PM80 °FSunny.No wind27%29.71 "Hg10 mi
2:53 PM79 °FSunny.6 mph29%29.73 "Hg10 mi
1:53 PM77 °FSunny.7 mph32%29.75 "Hg10 mi
12:53 PM76 °FSunny.7 mph35%29.78 "Hg10 mi
11:53 AM75 °FSunny.6 mph33%29.80 "Hg10 mi
10:53 AM70 °FSunny.10 mph44%29.83 "Hg10 mi
9:53 AM65 °FSunny.7 mph52%29.84 "Hg10 mi
8:53 AM61 °FSunny.6 mph58%29.85 "Hg10 mi
7:53 AM61 °FClear.9 mph54%29.85 "Hg10 mi
Weather by CustomWeather, © 2016

See weather overviewHow to use our weather pages